This demonstration page uses our WeatherBlox Daily Observations layout. Learn more.

Left ArrowRight Arrow

Hourly Observations for June 15, 2021

Temp ( °F °C ) Dew Point ( °F °C ) Humidity (%) Winds ( mph kmh ) Pressure ( in mb ) Visibility ( mi km ) Precip ( " mm )
12:15 am 00:15 Clear 76 24.5 66 18.9 71 71 SE 6 9 29.97 1015 10 16 N/A
12:35 am 00:35 Clear 76 24.4 66 18.8 71 71 N N/A 29.97 1015 10 16 N/A
12:55 am 00:55 Clear 76 24.5 65 18.5 69 69 S 6 9 29.97 1015 10 16 N/A
1:15 am 01:15 Clear 75 24.1 64 17.8 68 68 SSE 5 7 29.97 1015 10 16 N/A
1:35 am 01:35 Clear 76 24.2 64 17.5 66 66 S 5 7 29.97 1015 10 16 N/A
1:55 am 01:55 Clear 76 24.3 63 17 64 64 S 6 9 29.97 1015 10 16 N/A
2:15 am 02:15 Clear 76 24.5 62 16.9 63 63 SSW 9 15 29.97 1015 10 16 N/A
2:35 am 02:35 Clear 76 24.7 62 16.6 61 61 SSW 8 13 29.97 1015 10 16 N/A
2:55 am 02:55 Clear 76 24.7 61 16.3 60 60 SSW 7 11 29.97 1015 10 16 N/A
3:15 am 03:15 Clear 75 24 61 16.3 62 62 SSW 5 7 29.97 1015 10 16 N/A
3:35 am 03:35 Clear 73 22.6 62 16.6 69 69 SW 6 9 29.99 1015 10 16 N/A
3:55 am 03:55 Clear 74 23.1 62 16.5 67 67 SW 7 11 29.98 1015 10 16 N/A
4:15 am 04:15 Clear 73 23 62 16.5 67 67 SW 8 13 29.98 1015 10 16 N/A
4:35 am 04:35 Clear 74 23.1 62 16.5 67 67 SW 6 9 29.98 1015 10 16 N/A
4:55 am 04:55 Clear 73 23 62 16.6 67 67 SW 7 11 29.98 1015 10 16 N/A
5:15 am 05:15 Clear 73 22.7 62 16.7 69 69 SW 6 9 29.99 1016 10 16 N/A
5:35 am 05:35 Clear 73 23 62 16.8 68 68 SW 6 9 29.99 1016 10 16 N/A
5:55 am 05:55 Clear 74 23.1 63 17 69 69 SSW 6 9 29.99 1016 10 16 N/A
6:15 am 06:15 Sunny 74 23.1 63 17.3 70 70 SSW 6 9 29.99 1016 10 16 N/A
6:35 am 06:35 Sunny 74 23.2 63 17.3 70 70 SSW 6 9 29.99 1016 10 16 N/A
6:55 am 06:55 Sunny 74 23.5 64 17.5 69 69 SSW 6 9 29.99 1016 10 16 N/A
7:15 am 07:15 Sunny 74 23.1 65 18.2 74 74 N N/A 29.99 1016 10 16 N/A
7:35 am 07:35 Sunny 74 23.3 66 18.8 76 76 N N/A 30.01 1016 10 16 N/A
7:55 am 07:55 Sunny 75 24.1 67 19.2 74 74 N N/A 30.01 1016 10 16 N/A
8:15 am 08:15 Sunny 77 24.8 66 18.7 69 69 N N/A 30.01 1016 10 16 N/A
8:35 am 08:35 Sunny 79 26 66 18.9 65 65 N N/A 30.00 1016 10 16 N/A
8:55 am 08:55 Sunny 80 26.5 67 19.2 64 64 N N/A 30.00 1016 10 16 N/A
9:15 am 09:15 Sunny 82 27.5 66 19.1 60 60 N N/A 30.00 1016 10 16 N/A
9:35 am 09:35 Sunny 84 29 67 19.3 56 56 WSW 3 6 29.97 1015 10 16 N/A
9:55 am 09:55 Sunny 84 29 66 19 55 55 WSW 3 6 29.98 1015 10 16 N/A
10:15 am 10:15 Sunny 85 29.3 67 19.3 55 55 N N/A 29.97 1015 10 16 N/A
10:35 am 10:35 Sunny 86 30.2 67 19.4 52 52 N N/A 29.97 1015 10 16 N/A
10:55 am 10:55 Sunny 88 31.1 67 19.2 49 49 N N/A 29.96 1014 10 16 N/A
11:15 am 11:15 Sunny 89 31.4 67 19.3 49 49 NW 3 6 29.96 1014 10 16 N/A
11:35 am 11:35 Sunny 89 31.5 67 19.5 49 49 W 6 9 29.96 1014 10 16 N/A
11:55 am 11:55 Sunny 89 31.7 67 19.4 48 48 WNW 5 7 29.95 1014 10 16 N/A
12:15 pm 12:15 Sunny 89 31.6 67 19.2 48 48 W 7 11 29.95 1014 10 16 N/A
12:35 pm 12:35 Sunny 90 32 66 18.8 45 45 N N/A 29.94 1014 10 16 N/A
12:55 pm 12:55 Sunny 90 32.2 66 18.7 45 45 SSE 3 6 29.91 1013 10 16 N/A
1:15 pm 13:15 Sunny 91 32.7 67 19.2 45 45 SE 8 13 29.90 1012 10 16 N/A
1:35 pm 13:35 Sunny 92 33.2 63 17.3 39 39 S 7 11 29.90 1013 10 16 N/A
1:55 pm 13:55 Sunny 93 33.8 62 16.7 36 36 SSW 9 15 29.89 1012 10 16 N/A
2:15 pm 14:15 Sunny 93 34.1 64 17.6 37 37 S 9 15 29.88 1012 10 16 N/A
2:35 pm 14:35 Sunny 94 34.4 63 17.1 36 36 SSW 12 19 29.87 1012 10 16 N/A
2:55 pm 14:55 Sunny 94 34.6 62 16.7 34 34 SSE 8 13 29.87 1012 10 16 N/A
3:15 pm 15:15 Sunny 95 35 62 16.9 34 34 S 10 17 29.87 1011 10 16 N/A
3:35 pm 15:35 Sunny 95 34.9 62 16.6 34 34 S 7 11 29.87 1012 10 16 N/A
3:55 pm 15:55 Sunny 95 35.1 62 16.4 33 33 S 9 15 29.86 1011 10 16 N/A
4:15 pm 16:15 Sunny 96 35.3 63 17.2 34 34 S 9 15 29.86 1011 10 16 N/A
4:35 pm 16:35 Sunny 96 35.3 63 17.1 34 34 S 12 19 29.86 1011 10 16 N/A
4:55 pm 16:55 Sunny 96 35.4 63 17 33 33 S 9 15 29.86 1011 10 16 N/A
5:15 pm 17:15 Sunny 95 35.2 62 16.8 33 33 S 8 13 29.85 1011 10 16 N/A
5:35 pm 17:35 Sunny 96 35.3 62 16.5 33 33 S 8 13 29.85 1011 10 16 N/A
5:55 pm 17:55 Sunny 95 35.2 63 17 34 34 SSE 8 13 29.85 1011 10 16 N/A
6:15 pm 18:15 Sunny 95 35 62 16.8 34 34 S 10 17 29.84 1010 10 16 N/A
6:35 pm 18:35 Sunny 95 34.9 63 17.1 35 35 S 9 15 29.84 1010 10 16 N/A
6:55 pm 18:55 Sunny 94 34.5 64 17.5 36 36 S 10 17 29.84 1011 10 16 N/A
7:15 pm 19:15 Sunny 94 34.4 62 16.9 35 35 S 8 13 29.83 1010 10 16 N/A
7:35 pm 19:35 Sunny 93 33.9 63 17.4 37 37 SSE 7 11 29.84 1010 10 16 N/A
7:55 pm 19:55 Sunny 91 33 65 18.3 42 42 SSE 7 11 29.85 1011 10 16 N/A
8:15 pm 20:15 Sunny 90 32.1 65 18.5 44 44 SSE 7 11 29.86 1011 10 16 N/A
8:35 pm 20:35 Sunny 87 30.8 65 18.6 48 48 SSE 6 9 29.87 1012 10 16 N/A
8:55 pm 20:55 Sunny 85 29.5 65 18.6 52 52 SSE 5 7 29.87 1012 10 16 N/A
9:15 pm 21:15 Clear 83 28.6 66 18.8 55 55 SSE 6 9 29.88 1012 10 16 N/A
9:35 pm 21:35 Clear 82 27.7 66 18.8 58 58 SE 6 9 29.90 1012 10 16 N/A
9:55 pm 21:55 Clear 81 27 66 19 62 62 SE 7 11 29.90 1013 10 16 N/A
10:15 pm 22:15 Clear 80 26.5 65 18.5 62 62 SE 7 11 29.90 1013 10 16 N/A
10:35 pm 22:35 Clear 79 26.1 65 18.5 63 63 SE 7 11 29.91 1013 10 16 N/A
10:55 pm 22:55 Clear 79 25.9 65 18.5 64 64 SE 7 11 29.91 1013 10 16 N/A
11:15 pm 23:15 Clear 78 25.8 65 18.3 63 63 SE 7 11 29.91 1013 10 16 N/A
11:35 pm 23:35 Clear 78 25.5 65 18.5 65 65 SSE 5 7 29.91 1013 10 16 N/A
11:55 pm 23:55 Clear 78 25.4 65 18.1 64 64 SSE 7 11 29.91 1013 10 16 N/A

Powered by AerisWeather